Trieste, Italy

5:45 AM CEST on August 21, 2017 (GMT +0200)
Trieste

Weather History for LIVT - December, 2012

Change the Weather History Date:

Tuesday, December 25, 2012

  Actual Average Record
Temperature  
Mean Temperature 48 °F -  
Max Temperature 50 °F 45 °F 57 °F (2013)
Min Temperature 46 °F 38 °F 30 °F (2001)
Degree Days  
Heating Degree Days 17    
Moisture  
Dew Point 46 °F    
Average Humidity 91    
Maximum Humidity 94    
Minimum Humidity 85    
Precipitation  
Precipitation 0.00 in 0.10 in - ()
Sea Level Pressure  
Sea Level Pressure 30.11 in    
Wind  
Wind Speed 0 mph ()    
Max Wind Speed 2 mph    
Max Gust Speed -    
Visibility 1.9 miles    
Events      
Averages and records for this station are not official NWS values.
T = Trace of Precipitation, MM = Missing Value Source: Averaged Metar Reports

Daily Weather History Graph

Daily Weather History Graph

Search for Another Location

Airport or City:

Trip Planner

Search our weather history database for the weather conditions in past years. The results will help you decide how hot, cold, wet, or windy it might be!

Date:

Astronomy

Dec. 25, 2012 Rise Set
Actual Time 7:44 AM CET 4:26 PM CET
Civil Twilight 7:10 AM CET 5:00 PM CET
Nautical Twilight 6:32 AM CET 5:38 PM CET
Astronomical Twilight 5:56 AM CET 6:14 PM CET
Moon 2:24 PM CET (12/25) 4:58 AM CET (12/25)
Length of Visible Light 9h 50m
Length of Day
8h 41m
Waxing Gibbous, 92% of the Moon is Illuminated
Dec 25
Waxing Gibbous
Dec 28
Full
Jan 5
Last Quarter
Jan 11
New
Jan 19
First Quarter

Hourly Weather History & Observations

Time (CET) Temp. Dew Point Humidity Pressure Visibility Wind Dir Wind Speed Gust Speed Precip Events Conditions
12:55 AM 46.4 °F 44.6 °F 93% 30.18 in 1.9 mi Calm Calm - N/A   Overcast
1:00 AM 46 °F 44 °F 91% 30.21 in 1 mi Calm Calm - -   Mist
1:55 AM 46.4 °F 44.6 °F 93% 30.18 in 1.9 mi North 1.2 mph - N/A   Overcast
5:55 AM 46.4 °F 44.6 °F 93% 30.15 in 1.9 mi Calm Calm - N/A   Overcast
6:55 AM 46.4 °F 44.6 °F 93% 30.15 in 1.9 mi East 2.3 mph - N/A   Overcast
7:00 AM 46 °F 44 °F 89% 30.17 in 1 mi East 2.3 mph - -   Overcast
7:55 AM 46.4 °F 44.6 °F 93% 30.15 in 1.9 mi Calm Calm - N/A   Overcast
8:55 AM 46.4 °F 44.6 °F 93% 30.15 in 1.9 mi Calm Calm - N/A   Overcast
9:55 AM 48.2 °F 46.4 °F 93% 30.15 in 1.2 mi Calm Calm - N/A   Overcast
10:55 AM 48.2 °F 46.4 °F 93% 30.15 in 1.2 mi NNW 2.3 mph - N/A   Overcast
11:55 AM 48.2 °F 44.6 °F 87% 30.15 in 0.9 mi Calm Calm - N/A   Overcast
12:55 PM 48.2 °F 46.4 °F 93% 30.12 in 0.9 mi Calm Calm - N/A   Overcast
1:00 PM 49 °F 46 °F 85% 30.13 in 1 mi Calm Calm - -   Mist
1:55 PM 48.2 °F 46.4 °F 93% 30.09 in 0.9 mi Calm Calm - N/A   Overcast
2:55 PM 48.2 °F 46.4 °F 93% 30.09 in 1.2 mi Calm Calm - N/A   Overcast
3:55 PM 48.2 °F 46.4 °F 93% 30.06 in 1.9 mi Calm Calm - N/A   Overcast
4:55 PM 48.2 °F 46.4 °F 93% 30.06 in 2.5 mi Calm Calm - N/A   Overcast
5:55 PM 48.2 °F 46.4 °F 93% 30.06 in 2.5 mi Calm Calm - N/A   Overcast
6:55 PM 48.2 °F 46.4 °F 93% 30.06 in 2.5 mi Calm Calm - N/A   Overcast
7:00 PM 49 °F 46 °F 86% 30.08 in 2 mi Calm Calm - -   Mist
7:55 PM 50.0 °F 46.4 °F 87% 30.06 in 3.1 mi ENE 1.2 mph - N/A   Overcast
8:55 PM 50.0 °F 46.4 °F 87% 30.06 in 3.1 mi Calm Calm - N/A   Overcast
9:55 PM 50.0 °F 46.4 °F 87% 30.06 in 3.1 mi Calm Calm - N/A   Overcast
10:55 PM 50.0 °F 48.2 °F 94% 30.04 in 3.1 mi Calm Calm - N/A   Overcast
11:55 PM 50.0 °F 48.2 °F 94% 30.04 in 3.1 mi North 2.3 mph - N/A   Overcast